This is the latest recevied weather packets stored in our database for station/object K4IR. If no packets are shown the sender has not sent any weather packets the latest 10 day(s).
| Time | Temp. | Humidity | Pressure | Rain* | Wind** | Luminosity | Snow |
|---|---|---|---|---|---|---|---|
| 1777599361 | 14.44° C | 96% | 1010.6 hPa | 0 mm | - | 0 W/m² | - |
| 1777598762 | 14.44° C | 96% | 1010.9 hPa | 0 mm | - | 0 W/m² | - |
| 1777598161 | 15° C | 96% | 1010.7 hPa | 0 mm | - | 0 W/m² | - |
| 1777597556 | 15° C | 95% | 1010.6 hPa | 0 mm | - | 0 W/m² | - |
| 1777596953 | 15.56° C | 95% | 1010.7 hPa | 0 mm | - | 0 W/m² | - |
| 1777596353 | 16.11° C | 95% | 1010.4 hPa | 0 mm | - | 0 W/m² | - |
| 1777595751 | 16.11° C | 94% | 1010.5 hPa | 0 mm | - | 0 W/m² | - |
| 1777595149 | 16.67° C | 93% | 1010.4 hPa | 0 mm | - | 0 W/m² | - |
| 1777594548 | 16.67° C | 93% | 1010.1 hPa | 0 mm | - | 0 W/m² | - |
| 1777593945 | 17.22° C | 91% | 1010 hPa | 0 mm | - | 1 W/m² | - |
| 1777593344 | 17.78° C | 90% | 1010.1 hPa | 0 mm | - | 2 W/m² | - |
| 1777592743 | 18.33° C | 87% | 1009.9 hPa | 0 mm | - | 5 W/m² | - |
| 1777592140 | 18.89° C | 85% | 1009.7 hPa | 0 mm | - | 9 W/m² | - |
| 1777591539 | 19.44° C | 82% | 1009.5 hPa | 0 mm | - | 20 W/m² | - |
| 1777590936 | 20° C | 82% | 1009.5 hPa | 0 mm | - | 31 W/m² | - |
| 1777590334 | 19.44° C | 80% | 1009.4 hPa | 0 mm | - | 34 W/m² | - |
| 1777589734 | 19.44° C | 81% | 1009.1 hPa | 0 mm | - | 40 W/m² | - |
| 1777589128 | 19.44° C | 82% | 1009.2 hPa | 0 mm | - | 45 W/m² | - |
| 1777588526 | 19.44° C | 81% | 1008.9 hPa | 0 mm | - | 38 W/m² | - |
| 1777587923 | 19.44° C | 80% | 1009.6 hPa | 0 mm | - | 9 W/m² | - |
| 1777587320 | 20° C | 77% | 1009.3 hPa | 0 mm | - | 22 W/m² | - |
| 1777586717 | 20° C | 75% | 1009.6 hPa | 0 mm | - | 34 W/m² | - |
| 1777586113 | 20.56° C | 73% | 1009.1 hPa | 0 mm | - | 38 W/m² | - |
| 1777585511 | 21.67° C | 70% | 1008.8 hPa | 0 mm | - | 101 W/m² | - |
| 1777584909 | 21.67° C | 68% | 1008.9 hPa | 0 mm | - | 123 W/m² | - |
* Rain latest hour (hover to see other rain measurements)
** Current wind speed in m/s (hover to see current wind gust speed)